Location: Grieser Field
(39.7333°N, 81.7975°W)
Time: 19:10:38
(UTC-04:00)

MOS 1-B - Visible Passes

Search period start: 01 July 2015 00:00
Search period end: 11 July 2015 00:00
Orbit: 907 x 913 km, 99.2° (Epoch: 30 June)

Date Brightness Start Highest point End Pass type
(mag) Time Alt. Az. Time Alt. Az. Time Alt. Az.
01 Jul 4.8 03:44:47 10° NNE 03:50:29 56° E 03:54:15 22° S visible
01 Jul 5.8 05:27:38 10° NNW 05:31:59 22° WNW 05:36:10 10° WSW visible
02 Jul 4.7 03:50:15 10° NNE 03:56:01 63° ESE 03:59:48 22° S visible
03 Jul 4.5 03:55:44 10° NNE 04:01:32 70° ESE 04:05:22 22° S visible
04 Jul 4.4 04:01:13 10° NNE 04:07:03 77° ESE 04:10:55 22° S visible
05 Jul 6.8 02:28:54 10° ENE 02:29:43 10° E 02:31:00 10° E visible
05 Jul 4.3 04:06:44 10° NNE 04:12:34 86° ESE 04:16:28 22° SSW visible
06 Jul 6.7 02:33:22 10° ENE 02:35:20 12° E 02:37:42 10° ESE visible
06 Jul 4.3 04:12:14 10° NNE 04:18:05 86° WNW 04:22:01 22° SSW visible
07 Jul 6.6 02:38:17 10° ENE 02:40:57 14° E 02:43:58 10° ESE visible
07 Jul 4.3 04:17:45 10° N 04:23:35 78° WNW 04:27:34 21° SSW visible
08 Jul 6.5 02:43:21 10° NE 02:46:33 16° E 02:49:52 10° SE visible
08 Jul 4.4 04:23:17 10° N 04:29:05 71° WNW 04:33:07 20° SSW visible
09 Jul 6.4 02:48:31 10° NE 02:52:08 18° E 02:55:24 12° SE visible
09 Jul 4.5 04:28:49 10° N 04:34:34 64° WNW 04:38:39 20° SSW visible
10 Jul 6.3 02:53:45 10° NE 02:57:44 20° E 03:00:57 13° SE visible
10 Jul 4.6 04:34:22 10° N 04:40:03 57° WNW 04:44:12 19° SW visible
